Theta_e
268 268 267 267 267 266 266 266 266 266 266 266 266 266 266 266 265 265 265 264 265 264 264 264 264 264 264 264 264 263 263 263 264 264 263 263 263 264 264 264 263 263 264 263 264 264 264 264 264 265 265 264 264 265 265 266 266 266 266 266 266 267 267 266 265 266 269 272 273 273 275 275 274 275 275 275 275 275 279 277 277 276 277 277 277
268 268 267 267 266 266 266 266 266 266 266 266 266 266 266 265 265 265 264 264 264 264 264 264 264 264 263 263 263 263 263 263 263 263 263 263 263 263 263 263 263 263 263 262 263 263 263 263 263 263 264 263 263 263 264 264 264 264 265 265 265 266 268 267 266 266 265 269 270 273 273 274 273 275 274 274 274 275 274 275 276 276 276 276 276
268 268 267 266 266 266 266 266 266 265 265 265 265 265 265 265 265 264 264 264 264 264 263 263 263 263 263 263 263 263 263 263 263 263 262 262 262 262 263 262 262 262 262 262 262 262 262 262 262 263 263 262 262 263 264 263 264 264 264 265 265 265 267 267 265 264 264 266 269 269 271 273 273 273 274 275 274 274 273 274 274 275 276 276 276
267 267 267 266 266 266 265 266 265 265 265 265 265 265 265 265 265 264 263 264 263 263 263 263 263 263 262 262 262 262 262 262 262 262 262 262 262 262 262 262 262 262 261 261 261 262 261 261 261 262 262 262 262 262 263 264 264 264 264 264 265 265 266 267 267 265 265 264 267 268 269 270 271 273 274 275 274 273 274 274 275 275 275 276 275
267 267 267 266 266 265 265 265 265 265 264 264 264 264 264 264 264 263 263 263 263 263 263 263 262 262 262 262 262 262 262 262 262 261 261 262 261 261 261 261 261 261 261 261 262 261 261 261 261 262 262 261 262 262 263 263 263 264 263 264 265 265 266 266 266 266 265 264 265 268 269 269 270 271 272 271 272 272 273 273 272 273 274 275 276
266 266 266 266 265 265 265 265 264 264 264 264 264 264 264 264 263 263 263 262 262 262 262 262 262 261 261 261 261 261 262 261 261 261 261 261 261 261 261 261 261 261 261 261 261 261 261 261 261 261 261 261 261 262 262 262 263 263 263 264 264 265 265 265 266 265 265 265 265 265 267 267 268 269 270 271 270 270 271 272 273 273 273 273 274
266 266 265 265 265 264 264 264 264 264 264 264 264 263 263 263 263 262 262 262 261 261 261 261 261 261 261 261 261 261 261 260 260 260 260 260 260 260 260 260 260 260 260 260 260 260 261 261 261 261 261 261 261 261 261 261 262 262 262 263 264 264 264 264 265 264 264 264 264 265 266 268 269 268 271 272 272 271 269 269 269 271 272 272 273
265 265 265 264 264 264 264 264 264 264 264 263 263 263 263 263 262 262 262 261 261 261 261 260 260 260 260 260 260 260 260 260 260 260 259 259 259 259 259 259 259 259 259 260 260 260 260 261 261 261 261 261 261 261 261 261 262 261 262 263 263 264 263 264 264 264 264 264 264 264 265 265 266 267 269 269 268 269 270 270 268 269 270 272 273
265 265 264 264 264 264 264 264 264 264 263 263 263 262 262 262 262 261 261 261 261 260 260 260 259 259 259 259 259 259 259 258 258 258 257 258 258 258 258 259 259 259 259 260 260 260 260 261 261 261 262 263 264 264 264 264 262 261 262 263 263 263 263 264 264 264 264 264 264 265 265 265 266 266 266 266 267 267 270 271 269 270 271 271 272
264 264 263 263 263 263 263 263 263 263 262 262 261 261 261 261 261 260 260 260 259 259 259 259 258 258 257 258 258 258 257 258 259 262 265 262 261 261 261 260 260 260 260 260 260 261 261 262 262 264 264 265 265 265 266 266 267 266 265 264 264 264 264 264 264 264 264 263 263 264 263 263 265 266 266 267 269 270 270 270 268 269 269 269 271
262 262 262 263 263 263 262 262 262 261 261 261 260 260 261 260 259 259 259 258 258 258 258 258 257 257 257 256 256 256 257 257 262 265 266 266 262 262 262 261 262 262 262 262 262 263 263 264 264 265 265 266 266 266 267 267 268 269 269 269 268 266 264 264 264 265 264 264 264 264 263 263 265 266 267 268 269 269 269 269 268 268 267 267 266
263 262 262 262 262 262 262 261 261 260 260 260 260 259 259 258 258 258 257 257 258 257 257 257 256 256 256 256 256 256 256 260 265 266 266 262 265 263 263 262 262 262 262 262 262 262 262 263 263 264 264 264 264 265 265 267 267 268 269 269 270 272 271 268 266 265 265 265 265 265 265 264 264 265 266 267 267 268 269 269 269 268 268 268 269
262 262 262 262 261 261 261 260 260 259 259 259 259 258 257 258 257 257 256 257 257 256 257 257 256 256 256 255 255 256 255 261 264 265 266 261 265 263 262 262 262 261 262 262 262 262 262 262 262 263 264 265 265 265 265 265 267 268 268 268 269 270 271 273 273 269 268 266 266 265 266 266 265 265 267 267 269 267 268 268 269 269 270 269 270
261 261 261 261 261 261 260 260 259 259 259 259 258 257 256 256 256 256 256 257 256 256 256 256 256 255 255 255 255 255 255 259 264 266 265 263 265 263 260 261 261 261 261 261 261 262 262 262 262 263 264 265 265 265 265 265 265 265 265 265 266 267 269 271 271 271 270 268 267 266 268 269 267 268 268 270 268 267 267 267 268 268 269 269 271
261 261 261 261 261 260 260 259 259 259 259 258 257 256 256 256 256 256 256 256 255 255 255 255 255 255 255 255 255 255 255 262 264 262 263 265 266 266 261 261 260 260 260 261 261 262 262 262 262 262 263 263 264 266 265 265 265 265 265 265 265 265 266 266 266 267 267 267 267 267 267 268 268 269 269 270 269 269 269 269 269 269 269 270 270
261 260 260 260 260 260 259 259 258 258 258 257 256 257 256 256 255 256 256 255 255 255 255 255 255 254 255 255 254 254 254 262 263 262 262 265 263 261 260 259 259 259 260 260 261 261 262 262 262 262 263 263 265 269 268 266 265 265 265 265 266 266 267 270 272 272 269 268 267 267 267 268 271 269 269 269 269 270 270 270 270 270 268 267 266
260 260 260 260 260 259 259 258 257 257 257 256 256 256 256 255 255 255 254 255 255 254 254 254 255 254 254 254 254 254 254 259 263 259 261 261 262 259 259 259 260 260 259 260 261 262 262 263 263 263 263 263 265 269 270 268 265 265 265 265 266 266 267 269 272 274 274 275 275 275 275 275 275 275 276 276 272 270 268 267 266 268 267 266 267
260 260 259 259 259 259 258 257 257 256 256 255 255 256 256 256 255 255 254 254 254 254 254 254 254 254 254 254 254 254 254 258 263 259 262 263 262 259 259 259 259 259 259 260 261 261 262 264 264 263 263 263 267 269 270 268 265 265 265 265 265 265 266 268 268 269 274 274 276 275 276 276 275 276 276 276 276 274 269 266 267 268 266 267 266
259 259 259 259 259 258 258 257 257 256 256 256 255 255 255 255 255 255 254 254 254 254 254 254 254 254 254 254 256 255 255 256 261 262 259 263 261 259 259 259 259 259 260 260 261 261 262 263 264 264 264 265 269 270 270 268 265 265 265 265 264 264 266 267 266 266 267 267 268 269 269 272 271 271 272 274 275 275 272 270 269 267 266 267 267
260 259 259 259 259 258 258 257 257 256 256 256 255 255 255 255 255 254 254 254 253 253 253 253 253 253 254 254 254 254 254 254 256 260 258 259 262 260 259 258 258 259 260 260 259 260 261 261 263 266 267 268 269 269 270 271 267 266 266 265 264 264 266 266 267 267 267 268 268 268 268 268 268 268 268 268 269 270 271 271 271 270 268 268 268
259 259 259 258 258 258 258 257 256 256 256 255 255 255 255 255 254 254 253 253 253 252 252 252 252 252 253 253 253 253 254 253 255 262 257 262 264 261 260 260 260 260 260 260 260 259 259 260 260 263 265 267 268 269 270 270 270 267 266 264 265 267 269 267 267 269 268 268 269 268 268 268 267 267 267 267 268 269 270 271 272 272 270 269 268
259 258 258 258 258 258 257 257 256 256 256 255 254 254 254 254 254 253 253 253 252 252 252 252 252 252 252 253 253 253 254 256 254 260 261 263 264 265 261 260 261 260 260 259 258 258 258 259 259 262 264 267 268 269 270 270 270 266 265 269 271 271 267 267 266 266 266 267 268 268 267 267 266 266 266 267 268 269 269 270 271 272 272 272 271
259 258 258 257 257 256 256 256 256 256 255 255 254 253 254 253 253 253 252 252 251 251 251 251 251 251 251 252 253 253 254 255 257 257 260 263 264 265 265 263 265 261 259 257 257 257 258 259 260 262 266 267 268 268 268 268 267 265 269 270 270 269 266 264 265 265 266 267 267 267 267 267 266 266 266 267 268 269 269 270 271 271 272 273 273
258 258 257 257 256 256 255 255 255 255 255 254 254 253 253 253 253 253 252 251 251 251 251 251 251 251 251 252 252 253 254 255 257 258 258 262 264 264 264 265 264 261 259 257 257 257 257 258 260 265 267 267 266 266 267 267 264 268 268 268 266 265 264 264 264 264 265 266 267 267 267 267 266 266 267 268 269 269 270 270 270 271 272 273 273
257 257 256 256 255 255 254 254 254 254 254 254 253 253 253 253 252 252 252 252 251 251 251 251 251 251 251 251 252 252 253 254 254 256 259 259 263 264 264 264 262 260 258 257 258 258 261 265 266 265 266 266 266 266 263 263 266 265 265 264 264 262 262 262 262 263 263 264 266 267 267 267 267 268 269 269 270 270 270 270 271 271 272 272 272
256 256 255 255 254 254 253 253 254 254 254 254 254 254 253 253 252 252 252 252 251 251 251 251 251 251 251 251 251 252 253 253 253 254 257 257 258 260 262 260 259 259 259 259 260 262 264 264 264 262 262 261 260 259 260 261 263 263 263 262 260 260 260 260 261 262 263 264 265 266 267 267 268 268 270 270 270 269 269 269 269 269 269 269 268
256 255 254 254 254 253 253 253 253 254 253 254 254 254 254 253 253 253 252 252 251 251 251 251 251 251 251 251 251 252 252 253 253 253 254 254 255 256 256 256 258 259 258 258 259 258 259 260 260 261 261 261 261 261 261 261 259 258 258 258 259 258 259 260 261 262 262 264 264 265 267 268 269 269 268 268 267 268 269 269 268 268 268 269 269
255 254 254 253 253 253 253 254 254 253 254 254 253 253 254 254 253 252 252 252 251 251 250 250 250 251 250 251 251 251 252 253 253 253 254 254 255 255 256 256 257 257 257 257 258 259 259 260 259 257 257 257 257 255 255 256 257 257 257 257 257 259 260 262 262 262 262 262 262 263 265 267 268 268 268 268 267 268 269 268 268 267 268 269 268
254 253 253 253 253 253 253 253 253 253 253 254 254 254 253 253 253 253 254 253 253 251 251 251 252 252 251 251 251 251 252 253 253 257 257 258 257 257 257 257 257 257 259 260 259 259 257 255 254 255 254 254 254 253 253 254 255 256 256 256 257 257 258 258 258 259 259 260 260 261 262 264 267 268 268 266 266 267 269 268 268 267 267 268 267
253 253 253 252 252 253 253 253 253 253 253 253 253 253 256 257 256 255 254 256 257 258 258 253 254 253 253 253 254 253 253 255 258 258 259 261 260 260 259 260 260 259 260 260 260 256 253 251 252 251 252 251 252 252 253 253 253 254 255 256 256 256 257 258 258 258 259 259 260 260 261 263 265 267 267 266 266 267 268 269 267 267 267 266 266
253 253 253 252 253 253 253 253 253 252 252 252 252 252 252 254 260 262 259 259 258 262 262 258 259 258 257 256 257 259 258 259 259 259 259 257 258 259 259 259 260 260 260 259 256 251 250 250 250 250 251 250 251 251 252 253 253 253 254 254 255 256 256 256 257 258 258 258 259 259 261 262 263 266 267 267 266 267 268 269 268 267 267 267 266
252 252 252 252 253 253 252 252 252 252 252 252 252 251 251 251 252 256 260 258 260 262 261 258 256 259 258 258 257 256 257 258 258 257 258 257 258 258 259 258 259 260 260 259 252 248 248 248 249 248 249 249 251 252 252 252 253 253 253 253 253 255 255 255 256 256 257 257 257 258 259 260 262 263 265 267 267 267 267 268 268 267 267 267 266
252 252 252 252 252 253 252 252 252 252 251 251 251 251 251 251 250 250 252 259 260 258 259 260 258 259 258 258 256 255 257 256 257 257 257 257 258 258 258 259 259 259 258 252 247 247 247 247 247 248 249 249 250 251 252 252 252 252 252 252 253 253 254 255 256 256 256 256 257 256 258 259 260 262 264 266 267 266 267 267 268 268 267 267 267
252 252 252 252 252 252 252 252 251 251 252 251 251 251 251 251 250 250 250 250 251 254 256 256 256 256 256 257 259 255 254 253 256 256 256 255 256 254 258 257 259 259 256 248 247 246 246 246 247 247 248 249 250 251 251 252 252 252 252 252 253 253 254 255 255 255 255 255 255 256 257 258 259 260 261 262 265 268 267 267 267 267 267 267 266
252 253 253 253 252 252 252 252 252 252 252 251 251 251 251 251 251 250 250 249 248 249 249 250 253 254 253 253 254 255 255 255 255 254 257 254 255 257 257 249 248 247 247 246 247 246 246 246 246 247 247 249 250 251 251 251 251 251 251 252 252 253 253 254 254 255 255 254 254 255 256 256 257 259 259 260 262 264 266 267 267 267 267 267 267
252 252 252 252 252 252 252 252 252 252 251 251 252 251 251 251 250 250 250 250 249 249 249 250 250 252 253 254 254 254 254 255 254 255 254 254 256 255 248 246 245 245 246 246 245 247 247 246 247 247 247 248 249 250 250 251 251 251 251 251 252 252 252 253 254 254 254 254 254 254 255 255 256 257 258 259 261 262 264 266 267 267 267 267 267
252 252 252 252 252 252 252 252 252 252 252 252 252 251 251 251 251 250 250 249 249 249 249 249 249 249 251 251 252 253 254 254 256 255 256 256 257 251 245 246 245 245 246 245 246 246 245 245 246 246 247 247 248 249 250 250 251 251 252 251 251 251 252 253 253 253 253 253 253 253 253 254 255 256 256 257 259 261 262 263 266 268 268 268 268
252 252 252 252 252 252 252 252 252 253 252 252 251 251 251 250 250 250 250 249 250 249 249 249 250 248 247 248 251 251 250 252 252 251 251 250 249 245 245 245 246 245 246 245 245 244 244 245 245 245 246 247 247 248 249 250 250 250 250 250 251 251 253 252 253 252 252 252 252 252 253 253 254 254 256 256 258 259 260 262 263 265 268 268 268
252 253 253 254 253 253 252 252 252 251 251 251 251 251 250 250 250 250 249 249 249 249 249 248 248 248 248 248 246 248 249 247 245 245 245 245 246 245 244 244 244 245 245 245 245 246 244 245 246 246 247 246 248 248 249 249 250 249 250 250 250 250 251 251 251 251 251 251 251 252 252 252 253 254 255 256 257 258 259 260 262 263 265 267 267
252 252 252 253 252 253 252 252 252 251 251 250 250 250 250 250 250 249 249 249 248 248 248 248 248 248 248 247 246 246 246 247 247 246 245 245 244 244 242 243 244 244 245 244 244 244 244 244 245 245 246 246 247 248 249 249 249 249 249 249 249 249 250 250 250 251 251 251 251 251 251 251 252 253 254 255 257 258 258 259 260 262 263 265 267
252 252 252 253 253 252 252 251 251 251 250 250 251 250 250 250 250 250 249 249 248 248 248 248 248 249 249 250 252 251 249 248 248 246 245 245 245 244 244 243 244 244 244 244 245 244 243 244 244 245 246 246 247 247 248 248 249 249 249 249 249 249 250 250 250 250 251 251 251 251 251 251 252 253 253 254 257 257 258 259 260 261 262 264 265
252 252 252 251 252 251 251 251 251 251 251 251 250 250 250 250 250 250 249 249 249 248 248 248 248 249 250 252 251 252 250 248 247 246 246 245 245 245 245 244 244 243 244 244 243 244 244 244 245 245 245 246 246 247 247 247 248 248 248 249 249 249 249 249 250 250 250 250 250 250 251 251 252 253 253 255 255 255 256 258 259 260 261 262 264
252 252 252 251 251 251 251 251 251 250 250 250 250 251 251 250 250 250 249 249 249 248 248 248 248 249 249 250 250 250 249 248 247 247 246 245 244 245 244 244 244 244 244 243 243 244 244 244 245 244 245 246 246 247 247 247 248 248 248 248 248 248 248 249 249 250 250 250 250 250 250 251 251 251 252 253 254 255 255 257 258 259 260 261 262
252 252 251 251 251 251 251 251 250 250 250 250 251 251 250 250 249 249 249 249 248 248 248 248 248 248 248 249 249 248 248 247 246 246 246 245 245 244 244 244 244 244 244 244 243 244 244 244 244 244 244 245 246 246 247 248 248 248 248 248 248 249 249 249 249 249 249 249 249 250 250 250 251 251 252 253 253 254 255 256 257 258 259 260 261
251 251 251 250 250 250 250 251 251 250 250 250 250 250 250 249 249 249 249 249 248 248 248 248 248 248 248 248 248 247 247 247 247 247 246 245 244 244 244 244 244 244 243 243 243 243 243 244 244 243 244 245 246 246 247 248 248 248 249 248 248 248 248 248 248 249 249 249 249 249 249 250 250 250 251 252 253 253 254 255 256 258 258 259 260
251 251 251 250 250 250 250 250 250 250 249 249 249 249 249 249 249 249 249 249 249 248 248 248 248 248 248 248 248 248 247 247 247 247 246 246 245 245 243 243 243 244 243 243 242 242 244 243 244 244 244 244 245 246 247 247 248 249 249 249 249 249 249 249 250 249 249 249 249 249 249 249 250 251 251 252 252 253 254 255 256 257 257 258 259
251 251 251 250 250 250 250 250 250 249 249 249 249 249 248 248 249 249 249 249 249 248 248 248 248 248 248 247 247 247 247 247 247 247 246 246 245 245 244 243 244 244 243 243 242 243 243 244 243 244 244 244 244 245 246 247 248 248 249 249 250 250 249 250 250 250 249 250 250 249 249 249 249 250 251 251 251 252 253 254 255 256 256 258 258
251 251 250 250 250 250 250 249 249 250 249 249 249 249 248 248 248 248 248 248 248 248 248 248 248 248 248 248 248 248 248 248 247 247 247 246 246 245 245 243 244 243 242 243 242 242 243 242 242 243 244 244 245 245 246 247 247 248 248 249 249 249 250 250 250 250 250 250 250 249 249 249 249 250 250 250 251 252 252 253 254 255 256 257 258
250 250 250 250 250 250 249 249 249 249 248 248 248 248 248 248 248 248 248 248 248 248 248 248 248 248 248 248 248 248 248 248 247 247 247 247 246 246 245 245 244 244 242 242 242 242 243 243 243 244 243 244 244 245 245 246 247 247 248 248 249 250 250 250 250 250 250 250 250 249 249 249 249 250 250 250 251 252 252 253 254 255 255 256 257
250 250 250 250 250 250 250 249 249 249 249 248 248 248 248 248 248 248 248 248 248 248 248 248 248 248 248 247 247 247 247 247 247 247 247 247 246 246 246 245 245 244 243 241 242 242 242 241 242 243 244 244 244 244 245 245 246 247 247 248 249 249 249 250 250 250 250 250 250 250 249 249 249 249 249 250 250 251 252 253 254 254 255 255 256
250 250 250 250 250 250 249 249 248 248 248 248 248 248 248 248 248 248 248 248 248 248 248 248 248 248 248 248 248 247 247 247 247 247 247 246 246 246 246 245 245 244 243 243 242 242 242 242 242 243 243 245 245 244 245 245 246 246 248 249 249 249 249 249 249 249 250 250 250 250 250 249 249 249 249 249 250 251 252 253 253 254 254 255 255
Wind_Speed
6 4 3 3 3 5 6 6 6 6 6 7 7 6 3 3 3 4 4 5 6 6 7 8 8 7 8 8 8 9 9 9 8 8 8 8 8 8 9 9 9 9 9 10 9 9 9 9 9 8 7 6 6 6 6 7 7 7 7 7 9 9 9 9 12 15 11 6 11 10 8 7 8 6 9 7 7 6 7 6 6 7 6 7 7
5 5 3 3 4 5 5 5 6 5 6 7 7 7 5 3 3 3 4 6 5 7 7 7 7 8 8 8 8 9 9 9 9 8 8 8 9 8 9 9 10 10 9 9 9 7 8 9 9 8 7 9 8 8 7 7 6 7 8 8 8 9 8 9 11 12 15 8 10 10 10 9 12 8 9 9 8 6 7 7 6 6 6 7 7
5 4 3 3 4 4 6 6 5 6 6 6 6 6 6 4 3 4 5 5 6 6 7 7 8 8 8 8 8 8 8 8 8 8 9 9 10 9 9 10 10 10 10 10 10 9 9 9 9 8 6 8 8 8 8 8 7 8 9 8 9 10 10 10 10 12 14 12 9 12 10 9 10 8 7 7 5 4 6 6 4 5 6 7 6
5 5 4 3 4 5 6 6 6 6 6 6 6 6 6 5 4 3 4 5 6 6 7 8 8 9 9 9 9 9 9 8 8 8 9 10 10 11 10 11 10 10 10 10 10 9 9 10 9 8 7 9 9 8 8 8 8 8 9 8 9 10 10 9 10 11 11 13 11 11 11 11 12 11 9 8 9 7 8 9 8 10 8 7 6
5 6 5 5 5 5 6 6 7 7 7 6 6 6 6 5 3 4 5 6 6 7 7 7 8 8 8 9 10 10 10 9 9 9 9 9 10 11 11 10 10 11 11 10 11 10 10 10 10 8 8 10 9 9 9 10 9 10 11 10 9 10 9 10 11 11 11 13 13 10 10 10 10 11 10 12 10 10 8 8 6 6 7 7 9
5 6 6 5 5 6 6 6 6 6 6 6 6 6 6 6 5 4 5 7 7 7 8 8 8 9 9 9 9 10 9 9 9 10 10 10 11 11 10 11 11 11 11 11 10 9 10 10 10 9 9 10 10 9 9 11 11 10 11 10 10 10 11 12 12 12 13 14 14 12 9 11 11 11 10 11 11 10 9 8 8 8 10 10 9
5 5 6 6 6 6 6 6 6 6 6 6 6 6 6 6 5 5 5 6 7 8 8 8 8 9 10 10 10 10 10 9 9 10 10 11 10 10 11 11 11 10 10 10 10 10 10 10 10 10 11 11 12 12 12 12 11 12 12 12 10 10 10 10 11 13 13 13 13 13 13 12 12 12 9 9 10 10 10 10 10 7 7 7 9
5 6 6 7 6 7 6 6 6 6 6 6 6 6 6 6 5 5 6 7 7 8 8 9 9 9 10 10 10 9 10 10 10 10 10 10 10 11 11 12 12 12 12 12 12 12 12 13 13 13 13 14 13 13 13 12 11 12 12 11 11 12 12 11 11 11 12 12 12 12 10 11 10 11 12 11 13 12 9 9 10 8 7 7 9
5 6 6 6 6 7 7 7 6 6 7 6 6 6 6 6 6 6 6 7 7 8 9 10 10 11 10 10 11 10 9 9 7 8 10 12 11 12 12 13 12 13 13 13 13 13 13 13 14 14 16 20 23 22 19 17 13 12 13 11 12 12 12 11 10 11 10 10 11 12 13 13 12 11 9 8 10 11 8 8 10 9 7 7 8
4 5 6 7 7 7 8 7 7 7 6 6 5 5 6 7 7 7 7 6 7 8 8 9 9 9 10 10 9 9 9 8 12 23 22 15 12 11 11 11 10 11 12 12 13 14 15 15 14 21 24 25 26 27 28 28 28 21 14 12 13 13 13 13 12 10 10 11 11 11 11 11 9 10 11 11 10 10 11 8 9 7 6 9 10
4 5 7 7 7 6 6 6 6 6 5 4 5 6 8 5 6 7 7 6 7 8 8 9 9 9 9 10 11 10 10 9 21 24 25 28 18 14 15 15 15 15 13 13 13 13 11 11 10 14 18 20 20 26 27 28 28 29 31 30 23 16 13 14 13 12 12 13 12 11 11 13 11 10 11 10 8 10 11 10 9 9 7 8 11
6 6 6 6 6 6 6 7 6 6 5 6 7 6 5 5 6 7 7 7 8 7 9 9 9 10 9 10 11 10 10 16 25 25 26 21 23 18 13 11 12 12 12 12 12 11 11 11 11 11 11 13 14 15 21 27 29 30 30 29 29 31 28 19 14 13 14 13 13 12 11 11 11 9 9 10 9 10 11 11 11 10 9 9 9
5 6 6 6 6 6 7 6 5 6 5 6 6 5 5 6 7 7 8 7 7 8 10 11 10 10 10 11 11 11 10 20 24 26 26 22 28 22 11 11 11 12 12 12 12 11 10 11 12 11 12 23 20 17 16 16 21 27 29 29 30 32 31 33 32 21 14 14 13 13 13 12 13 12 11 11 10 13 11 11 10 10 10 11 11
5 6 6 7 7 6 6 6 6 6 6 6 5 5 5 6 6 7 7 8 9 10 10 11 11 10 10 11 11 11 11 18 25 26 25 20 26 22 13 12 11 10 11 11 11 12 12 11 11 11 11 12 13 14 14 15 15 15 16 16 16 20 26 31 31 33 27 18 16 16 13 13 14 13 12 12 13 13 12 13 10 11 11 11 9
6 6 7 7 7 7 7 6 7 6 6 6 5 5 6 7 8 8 7 8 9 9 10 10 11 11 11 11 11 11 11 23 25 25 20 28 32 26 11 10 9 9 10 11 11 12 11 12 12 14 13 14 13 17 16 16 15 15 15 16 15 15 15 15 16 15 16 15 15 16 16 14 15 15 12 12 14 14 13 12 11 12 13 14 14
7 6 7 7 7 7 6 6 6 6 7 7 6 8 8 8 9 8 8 8 8 9 10 9 11 12 11 11 11 13 12 24 26 21 26 27 29 16 11 10 11 10 11 10 11 11 12 12 12 13 13 13 18 29 26 19 16 17 18 17 17 16 16 19 25 25 21 19 17 18 17 18 21 18 17 15 14 15 14 14 13 12 13 12 13
8 8 8 8 7 6 6 6 6 6 6 7 8 8 9 9 8 6 8 8 9 10 10 10 10 11 12 12 12 13 12 19 26 21 22 28 20 13 11 9 10 10 10 10 11 11 11 11 12 12 13 13 19 29 30 28 18 18 17 17 17 16 16 17 25 32 32 33 33 34 34 34 34 35 33 35 24 18 13 13 14 13 13 13 12
8 8 8 8 8 6 6 6 7 8 8 9 9 9 8 7 7 7 8 9 10 10 10 10 10 10 12 12 11 12 12 17 26 20 29 30 25 14 10 9 10 10 10 11 10 10 12 23 20 14 13 13 24 30 31 26 18 17 16 18 19 16 14 12 11 13 24 30 32 33 33 32 35 36 35 34 33 25 14 15 14 10 11 13 12
8 8 8 7 7 6 6 6 7 8 9 9 8 9 8 8 8 7 8 8 10 10 10 10 10 10 10 11 15 16 13 15 24 26 22 28 21 13 11 9 10 10 10 10 9 9 10 13 21 20 18 20 30 30 31 25 16 15 14 14 14 15 12 12 12 13 12 13 15 18 20 25 23 19 17 26 29 26 17 16 13 13 13 15 15
8 8 7 7 7 7 6 7 8 9 10 9 8 8 7 8 9 9 8 8 9 9 10 10 12 11 11 11 11 11 13 13 15 27 20 26 29 19 9 9 10 10 9 9 9 9 10 9 12 20 25 27 28 29 29 30 20 14 12 11 12 15 12 12 13 13 14 15 16 16 18 17 16 13 13 13 13 15 16 14 15 15 14 15 15
7 7 7 7 7 7 7 7 9 8 7 8 8 8 8 9 10 9 9 9 9 10 11 11 11 12 11 12 11 12 11 13 15 25 21 26 23 21 8 8 8 9 10 11 8 7 8 9 9 16 25 27 28 30 31 31 29 19 13 10 12 16 19 14 15 18 14 15 16 16 13 12 12 11 11 11 12 12 13 15 13 14 16 16 16
6 6 8 8 8 8 8 8 8 8 8 8 9 10 9 9 10 10 8 9 11 12 11 11 11 12 11 11 11 12 12 17 14 20 24 26 27 28 14 10 11 10 10 6 7 7 8 9 8 15 24 26 27 29 31 29 31 18 15 24 29 28 17 12 11 11 12 13 12 12 11 11 10 11 11 12 12 13 13 13 13 13 13 14 16
6 7 8 9 8 9 8 9 10 8 9 9 10 12 10 10 10 9 9 10 11 13 12 11 11 11 11 10 9 10 10 11 17 15 20 24 26 27 27 20 23 12 5 7 8 9 9 10 12 21 25 27 29 28 27 30 23 15 26 28 27 28 23 12 11 12 12 13 13 12 12 11 11 11 12 12 12 12 12 12 12 13 13 14 15
7 8 8 8 9 9 8 9 9 9 9 10 10 11 12 10 10 9 9 9 10 11 10 9 9 10 11 10 9 8 8 8 12 18 16 22 25 28 27 26 25 13 11 8 8 10 10 11 14 25 27 26 26 27 29 28 20 28 27 27 27 24 14 13 12 12 13 14 14 12 11 11 11 11 11 11 11 11 12 12 13 13 14 13 14
8 9 9 9 9 9 8 9 10 9 10 10 11 11 11 10 10 9 8 9 9 10 10 8 9 10 11 11 10 9 8 8 8 10 18 21 25 27 26 26 24 23 14 10 12 11 18 27 27 26 26 27 29 28 23 23 26 25 26 26 23 10 10 10 12 11 12 13 13 13 12 11 12 13 12 11 11 10 10 10 10 11 12 13 13
8 9 9 9 9 9 10 11 10 11 11 10 10 10 11 10 10 10 9 9 9 9 10 9 9 10 11 10 10 9 9 8 8 7 9 14 16 22 25 24 22 22 21 16 22 27 27 26 28 25 22 19 16 13 12 13 21 24 24 21 10 9 9 11 11 11 11 11 11 13 11 10 10 10 12 11 10 10 10 9 8 9 9 9 7
10 10 10 10 9 9 10 9 9 9 9 9 9 9 9 9 9 10 9 9 9 9 9 9 10 10 11 10 10 10 9 8 8 7 7 9 10 10 11 11 17 19 14 12 14 13 16 17 15 19 17 24 23 21 17 15 12 11 8 8 8 9 9 9 11 11 12 11 10 12 13 11 10 9 9 9 9 9 8 8 8 8 6 6 7
10 10 10 9 9 9 10 12 12 10 9 9 9 8 8 8 9 10 10 9 9 9 8 9 11 11 11 10 10 10 10 9 8 8 9 10 10 10 9 10 10 9 10 10 10 12 12 11 12 7 8 9 9 6 5 6 8 9 8 8 9 10 13 17 14 10 9 9 10 10 12 10 8 9 8 9 9 9 9 9 9 8 7 7 5
10 10 10 9 10 9 9 9 9 10 9 9 8 8 9 9 10 11 10 8 9 9 10 11 12 11 10 9 10 11 11 11 9 12 14 16 14 11 9 8 8 9 12 18 16 12 6 5 6 8 6 7 6 7 6 7 7 8 9 9 8 8 8 8 8 9 9 10 10 10 11 11 10 8 9 8 8 8 9 10 9 8 7 7 8
10 10 9 9 9 9 9 9 8 9 9 10 10 10 11 17 15 12 11 15 22 25 21 14 13 11 11 11 10 11 12 12 20 24 23 23 24 24 22 23 22 17 19 24 16 6 4 5 6 6 6 5 6 7 7 7 8 9 8 11 11 9 9 9 9 9 10 11 10 10 11 11 10 8 6 7 6 5 6 8 7 8 8 8 8
9 9 9 8 9 9 9 9 9 9 9 10 10 11 10 11 20 25 23 22 23 26 27 22 21 20 15 11 11 21 24 25 25 21 22 22 23 24 22 20 20 21 21 13 4 3 5 5 6 6 6 5 6 6 7 7 8 8 8 9 9 10 10 9 9 10 11 11 11 10 10 10 10 10 7 7 6 7 6 7 7 7 8 8 8
10 9 9 9 10 10 9 10 10 9 9 9 9 10 10 11 10 13 20 22 23 25 22 18 20 21 23 19 14 9 14 18 21 22 18 18 20 21 20 21 21 22 18 12 4 4 3 5 6 6 6 5 5 6 7 7 7 7 8 8 8 8 10 9 11 10 10 10 10 11 10 10 9 9 10 7 9 9 9 8 8 8 8 7 8
11 11 10 10 10 11 10 9 9 9 10 10 10 9 10 10 12 11 9 16 22 22 24 23 19 20 19 18 20 14 17 17 21 16 18 20 21 21 23 23 16 16 13 5 3 5 4 5 6 5 6 6 6 6 6 7 7 8 7 8 9 9 9 11 13 10 10 10 10 10 10 10 10 10 10 8 6 7 8 9 8 9 9 9 9
11 10 9 10 10 9 9 9 9 9 9 9 9 9 9 9 10 10 11 10 9 13 17 19 19 19 19 22 23 18 16 18 21 22 22 21 18 20 20 10 13 14 9 4 5 4 5 5 5 5 6 6 6 6 6 6 7 7 8 8 8 8 10 11 9 9 9 10 10 10 10 9 10 9 9 8 8 6 8 9 9 9 9 9 9
10 11 16 13 9 9 9 9 9 9 9 9 9 9 9 9 9 10 10 10 11 11 10 9 10 13 13 14 18 21 21 21 20 20 22 20 20 20 11 8 7 5 5 2 4 4 5 4 5 5 5 6 6 6 7 7 7 7 8 9 8 8 9 10 10 9 9 9 10 9 10 10 10 9 8 8 7 7 4 7 8 9 9 9 9
10 9 9 10 9 8 9 9 8 8 8 9 9 9 10 10 10 10 10 10 11 11 10 8 8 8 17 18 19 19 20 19 18 18 22 17 16 12 7 7 6 5 5 5 4 5 3 4 4 5 5 5 6 6 7 7 7 7 7 8 9 9 9 9 10 9 9 9 9 11 11 9 9 9 8 7 8 6 6 5 6 8 9 9 8
9 9 8 8 8 8 9 9 9 9 10 11 10 9 9 10 10 9 9 10 10 9 10 10 8 8 8 7 10 15 18 18 19 17 19 17 18 9 3 6 6 6 7 5 5 4 5 5 5 5 5 5 5 6 7 7 7 7 8 8 8 9 8 9 10 10 10 9 9 9 10 9 10 10 9 8 7 7 6 6 6 7 9 10 10
11 10 9 9 8 9 9 9 9 12 10 9 9 8 9 9 9 9 10 10 10 10 10 9 9 9 9 9 8 7 9 15 18 14 11 11 8 5 5 4 5 6 6 6 4 4 5 5 5 5 6 5 5 6 7 6 6 7 7 8 7 8 13 11 12 10 10 8 8 9 10 9 9 9 10 8 8 7 8 7 7 7 7 11 9
8 11 14 15 12 10 9 9 9 9 8 8 8 9 10 10 9 9 9 9 9 9 10 9 9 9 9 7 6 5 8 8 6 7 6 5 5 5 5 6 5 6 6 6 5 4 5 5 6 4 5 5 6 6 6 6 6 6 7 7 8 7 8 7 8 8 8 8 9 8 9 9 9 9 9 9 8 8 8 8 7 7 6 6 9
9 8 9 12 9 10 9 10 9 9 9 9 9 8 9 9 9 9 9 9 10 9 9 10 10 9 8 6 6 5 7 8 7 7 6 6 5 5 4 5 5 5 6 6 6 5 5 5 5 5 6 6 5 6 5 6 6 6 7 7 7 7 7 7 8 8 8 8 8 9 9 9 9 9 9 8 8 8 8 8 8 7 6 6 6
8 8 8 8 10 10 9 10 9 9 8 9 9 9 9 9 9 9 9 9 9 9 9 10 10 9 7 10 17 16 10 9 8 6 6 6 6 5 5 5 5 6 6 6 6 6 6 5 5 5 6 5 6 5 5 5 6 6 6 7 7 7 7 7 7 7 8 8 8 9 9 9 9 9 9 9 10 10 9 8 7 7 7 7 6
8 8 8 8 9 8 9 10 9 10 9 10 9 9 9 9 9 8 9 9 9 9 10 10 10 9 10 19 18 19 13 7 6 7 7 7 7 6 6 6 5 5 6 6 6 5 5 5 5 5 5 6 6 5 5 5 5 6 6 6 7 7 7 7 7 7 8 8 8 8 9 9 10 10 10 11 9 8 8 8 7 7 7 7 6
8 8 8 9 8 8 9 9 9 9 9 9 9 8 9 9 9 9 9 10 10 10 10 10 9 8 9 12 13 15 9 7 6 8 7 7 6 6 6 6 6 6 6 6 5 5 5 6 6 6 5 6 6 6 5 5 5 6 6 6 6 7 7 6 6 7 7 8 8 9 10 9 9 8 9 9 9 9 8 9 8 7 8 7 7
7 8 9 9 9 9 9 8 9 9 8 10 10 10 9 9 9 9 9 10 10 9 9 9 9 9 8 8 8 8 7 7 7 7 7 7 6 6 6 6 6 6 6 6 5 4 4 6 6 6 5 5 6 6 5 5 5 6 6 6 6 7 6 5 6 7 8 8 9 9 9 9 10 9 9 9 9 9 9 9 9 8 8 8 8
7 8 8 9 9 8 9 8 9 9 10 9 8 9 9 8 9 9 9 9 9 9 9 9 8 8 8 8 7 7 7 7 7 7 7 6 6 6 6 6 6 6 6 6 4 4 4 5 6 5 5 5 6 6 6 5 5 5 5 6 6 7 5 4 5 6 7 8 8 9 9 9 9 8 9 9 9 9 9 9 8 9 8 8 7
6 8 9 9 10 10 9 9 9 8 8 8 9 9 8 8 9 9 9 9 9 9 9 8 8 8 8 8 8 8 8 7 7 6 7 6 6 6 6 6 6 6 6 7 5 4 5 5 5 5 6 6 5 5 6 6 6 5 5 5 6 6 4 4 5 6 7 7 7 8 8 9 9 8 10 9 9 9 8 8 8 8 8 7 8
8 8 9 9 9 10 9 9 8 8 8 8 9 9 9 9 9 9 10 10 10 9 9 8 8 8 8 8 8 8 8 7 7 6 6 6 6 6 6 6 6 6 6 6 4 6 5 5 5 5 6 6 5 6 6 6 5 5 5 6 6 5 4 5 6 6 6 7 7 7 7 8 8 8 9 9 8 8 9 8 8 9 8 7 7
8 9 9 9 9 9 9 8 9 9 9 9 9 9 9 9 9 9 9 9 9 9 9 8 8 8 8 8 7 8 7 7 7 6 5 5 5 5 6 5 6 6 5 5 4 5 4 5 5 5 6 6 6 5 6 6 5 5 5 5 5 4 8 10 7 6 6 6 6 6 7 7 7 8 8 8 8 8 8 8 8 7 7 7 7
8 9 9 8 8 8 8 8 8 8 9 8 9 10 9 9 9 9 9 9 9 9 8 8 8 7 7 7 7 7 7 7 7 6 6 5 5 5 5 5 5 6 5 5 5 4 5 5 5 5 6 6 6 6 6 6 6 5 5 5 6 12 13 14 9 7 11 9 6 6 6 6 7 8 8 8 8 7 7 8 7 7 6 6 6
8 8 9 9 9 8 8 8 8 8 8 8 9 9 9 9 9 9 9 9 9 9 8 8 8 7 7 7 7 7 6 7 7 6 6 5 4 4 5 5 6 5 5 5 5 5 5 4 5 6 5 5 6 6 6 5 5 5 4 5 10 14 14 14 12 13 10 7 8 7 7 7 6 6 7 7 7 8 7 7 7 6 6 6 6
9 9 8 8 8 8 7 8 8 8 8 8 9 9 9 9 9 9 9 9 9 8 8 8 7 7 7 6 6 7 7 7 7 6 5 5 5 5 5 5 5 5 4 5 5 5 5 5 5 5 5 5 5 5 5 6 5 5 7 11 13 14 13 10 8 11 15 12 8 7 6 6 6 7 7 7 7 7 7 7 7 6 5 5 5
Wind_Direction
301 294 303 300 303 304 306 306 306 303 301 302 303 298 286 289 295 296 315 318 307 311 308 307 305 304 304 304 302 299 299 300 299 297 294 290 289 290 293 292 291 290 290 290 286 285 283 281 281 280 288 290 290 292 293 295 297 295 295 292 285 285 285 282 280 285 285 276 282 281 280 281 277 268 276 276 281 283 278 272 274 268 257 247 241
298 296 299 295 295 299 303 302 299 302 306 304 299 297 295 292 295 309 310 306 312 303 302 301 302 301 299 295 295 297 297 296 296 293 294 295 294 295 293 289 286 285 283 283 283 281 282 285 285 287 287 284 284 285 283 282 283 284 281 278 275 276 273 275 277 281 285 288 285 288 281 278 276 268 266 268 263 259 261 266 265 265 261 251 240
302 293 286 287 294 299 299 296 296 299 298 296 297 304 307 305 303 306 303 304 306 304 299 301 301 298 294 292 291 292 293 293 296 299 297 294 291 289 290 289 286 285 284 282 284 285 281 281 279 282 285 283 281 277 279 278 277 275 274 271 272 270 273 280 286 282 285 284 283 284 287 289 281 280 268 269 265 254 269 270 269 267 265 255 248
301 301 294 294 304 305 303 307 306 301 298 298 299 303 306 304 309 316 312 305 301 298 301 302 302 297 295 297 296 293 292 290 290 291 292 293 292 289 289 288 285 283 283 282 280 277 275 274 275 277 278 277 278 277 275 274 271 268 270 271 273 276 275 267 264 272 279 284 276 273 280 279 279 284 290 282 281 279 270 270 263 264 266 268 266
303 301 299 299 299 302 303 300 298 298 297 299 304 307 306 308 311 309 306 301 301 305 304 301 296 296 295 295 296 294 292 292 291 290 289 288 287 285 282 280 280 280 279 277 276 276 277 275 277 277 273 272 270 268 266 263 262 264 266 266 266 269 270 267 267 267 273 274 280 277 281 275 277 279 278 281 279 277 275 271 270 267 267 262 262
299 298 299 301 302 303 300 297 297 301 303 306 307 307 307 304 302 300 303 301 302 300 299 297 292 292 291 290 289 291 293 294 296 294 290 287 283 281 280 279 278 278 278 278 279 278 276 275 273 272 271 268 267 264 263 264 264 263 265 265 267 267 268 269 273 276 276 275 277 282 273 279 278 270 265 262 269 269 265 263 263 261 266 271 266
297 297 299 299 297 293 295 297 299 302 305 304 305 300 297 299 303 304 306 304 301 295 292 293 296 296 296 295 292 293 295 295 290 286 282 280 278 280 281 280 279 280 279 278 277 275 271 269 266 261 259 258 259 258 258 259 259 258 256 259 258 260 259 259 261 264 265 269 272 274 279 275 276 281 283 285 273 263 265 266 261 252 252 256 263
295 296 294 292 293 297 299 300 300 298 299 297 293 296 300 303 308 310 308 300 296 295 296 298 298 296 294 295 294 292 289 288 285 284 282 279 279 276 275 276 276 273 271 267 263 260 258 256 256 255 252 253 254 256 254 258 255 255 253 252 252 251 252 253 253 256 259 262 266 272 271 274 269 271 274 273 274 267 255 261 264 258 250 248 254
296 295 297 297 301 306 303 301 298 295 294 295 296 297 304 308 309 302 293 290 291 294 296 295 295 293 289 287 288 286 283 282 283 283 279 275 268 266 264 265 260 261 263 260 258 256 255 255 255 254 251 251 251 251 250 245 243 248 249 245 246 249 252 251 252 253 251 252 257 262 270 271 271 272 269 261 256 266 265 245 255 254 256 259 256
299 306 304 302 302 299 296 292 291 294 295 295 302 311 309 307 300 295 294 294 294 293 291 288 284 284 285 284 282 282 279 278 278 280 280 275 264 255 257 253 239 244 250 251 253 251 252 254 254 253 253 254 253 255 257 257 256 254 250 239 240 244 244 247 245 242 246 251 250 253 256 256 253 256 264 263 265 269 269 263 263 265 267 269 268
298 287 283 281 278 281 289 293 296 295 297 299 300 295 292 289 290 290 293 294 291 289 287 284 280 279 282 283 281 278 275 271 279 282 283 283 284 283 280 277 278 275 270 270 274 273 267 259 255 254 257 261 265 267 267 265 264 262 260 258 253 241 234 239 236 232 239 242 246 247 247 253 249 246 253 265 267 276 275 269 263 263 256 261 266
281 278 279 285 287 290 289 289 289 289 292 290 289 287 290 291 289 288 288 287 285 286 283 281 279 278 277 276 273 272 272 277 282 285 287 285 284 282 277 274 278 279 279 278 276 276 276 276 269 267 263 262 261 258 259 262 265 266 267 266 265 261 254 244 238 239 237 240 242 237 241 246 252 241 248 251 258 261 261 265 262 256 252 246 252
281 284 285 286 289 287 284 279 277 281 280 281 282 282 281 284 286 289 286 283 287 284 282 283 279 276 273 274 274 273 270 281 285 285 286 285 285 285 279 275 277 276 276 275 274 272 270 269 270 265 262 269 270 266 266 265 265 267 267 265 264 262 264 264 262 256 245 247 243 242 234 242 245 240 232 240 242 256 256 256 258 258 254 252 252
282 286 289 287 285 282 278 275 274 275 277 278 280 280 284 284 286 285 286 285 281 281 279 277 277 275 272 271 274 275 274 281 284 285 285 284 287 289 285 286 281 276 276 276 274 273 268 265 267 266 263 263 262 261 258 257 259 259 258 258 257 259 262 264 268 271 271 267 263 261 253 245 248 245 234 228 235 239 243 249 250 260 264 262 268
286 286 285 284 284 284 284 280 278 281 287 288 287 285 286 289 286 282 278 277 279 279 279 281 277 275 275 273 273 276 272 282 285 286 286 288 290 294 300 294 287 281 277 275 273 271 269 268 267 268 267 264 261 263 260 259 258 258 257 256 254 253 252 251 253 253 255 256 255 254 254 248 248 250 242 228 229 236 239 243 242 246 252 261 264
283 284 282 281 282 282 283 285 284 285 286 287 288 285 282 277 277 276 275 274 273 275 275 272 275 276 274 274 275 275 277 283 287 289 290 292 292 297 297 292 287 278 274 274 270 268 264 260 257 261 261 264 266 272 270 266 258 256 254 254 255 255 252 249 247 244 241 240 242 245 245 242 241 240 239 236 236 240 243 248 253 253 254 252 251
285 283 281 282 284 285 284 283 281 280 282 282 278 276 276 275 271 273 277 275 277 275 272 272 272 274 275 273 271 274 274 282 286 287 287 289 293 293 288 283 277 277 276 275 271 266 267 268 271 270 269 266 270 275 276 276 271 264 260 257 254 255 255 254 257 259 256 253 247 244 244 245 245 246 246 242 235 227 231 236 237 235 240 248 250
281 283 282 284 283 283 281 280 282 282 280 274 272 270 269 269 271 274 276 281 277 275 277 277 272 269 270 270 267 272 274 281 287 289 291 291 290 287 288 283 276 275 273 268 269 273 273 278 279 278 277 277 277 276 274 273 271 272 269 269 268 266 265 265 266 264 268 274 274 272 271 259 252 251 246 244 244 239 221 226 227 219 229 236 247
278 279 280 280 279 277 276 276 277 276 272 268 266 269 268 270 274 274 271 273 274 277 277 277 276 273 270 272 276 278 280 285 288 290 287 288 289 289 285 279 279 277 274 273 270 271 275 280 282 281 277 274 276 278 279 280 276 272 270 271 271 271 274 275 272 270 267 264 264 268 269 270 267 264 259 256 254 254 246 240 229 224 231 236 239
275 276 279 281 280 277 273 274 272 270 270 269 265 265 274 279 276 275 271 269 275 277 277 277 278 277 276 276 277 276 278 278 278 283 283 286 291 290 286 279 275 272 275 280 281 270 268 273 281 291 293 294 295 295 294 292 289 284 284 286 288 287 284 278 270 266 268 266 264 259 255 252 254 254 256 255 257 256 253 240 234 228 226 233 234
277 279 281 281 279 277 275 272 274 271 269 274 275 274 274 274 277 273 274 274 273 275 274 274 275 275 275 274 274 274 268 272 274 281 286 290 290 295 291 284 288 288 282 280 284 307 315 301 294 290 291 293 294 295 294 294 296 299 303 297 284 280 283 278 282 289 291 286 276 268 254 245 241 242 243 245 242 241 240 239 229 226 230 232 231
277 279 279 280 279 278 276 275 274 277 277 278 278 275 271 269 269 271 270 271 273 274 274 275 275 276 275 274 271 271 270 266 268 278 287 293 297 301 303 294 289 288 296 314 315 305 292 290 284 287 290 291 290 288 291 295 301 307 304 297 294 295 303 311 303 293 282 278 271 261 250 237 235 233 237 239 237 235 235 231 227 223 224 232 236
278 279 279 279 279 279 278 277 277 276 276 273 274 276 275 272 270 267 268 270 270 272 273 273 273 274 274 272 267 265 265 264 270 275 285 292 296 300 301 302 304 311 319 318 310 297 291 287 286 291 288 285 286 293 302 309 315 312 304 302 306 316 320 308 301 295 286 279 270 256 243 235 230 233 232 234 231 228 229 227 226 223 225 228 227
282 281 278 277 278 277 277 277 276 275 274 275 272 273 274 272 271 268 265 266 270 272 272 273 275 275 278 280 274 271 269 272 273 279 285 292 296 299 301 305 309 320 322 313 302 295 293 285 279 282 289 299 308 316 320 321 315 311 310 312 315 314 310 306 299 294 289 283 274 258 245 233 229 233 233 231 231 222 222 224 225 225 225 225 225
279 275 274 274 275 276 277 275 275 272 271 271 273 273 273 271 273 267 263 263 263 268 271 274 275 278 279 279 280 277 273 269 268 272 285 291 294 297 300 305 313 316 312 306 300 295 293 294 298 307 313 315 318 317 313 307 305 305 308 309 310 314 312 304 298 290 284 282 280 269 246 233 227 228 228 227 227 222 222 226 224 225 223 222 221
277 275 277 278 277 279 279 276 271 269 268 264 261 263 265 268 266 270 264 261 261 265 272 275 274 275 276 276 277 279 277 271 269 271 276 282 283 288 293 299 302 300 298 294 296 298 300 304 305 307 308 307 305 301 296 300 304 306 307 310 310 306 302 298 291 286 282 286 288 283 263 245 234 229 225 224 221 220 213 214 213 221 216 208 214
281 281 280 279 277 276 275 277 277 272 268 264 259 259 260 262 264 268 264 264 263 263 268 270 274 273 275 275 277 279 280 275 271 268 271 274 271 274 282 285 286 291 291 285 287 287 287 290 297 302 303 302 300 299 302 309 312 308 307 305 302 297 291 285 286 289 292 291 302 307 293 255 240 230 228 219 221 218 205 206 205 211 201 203 193
283 281 278 277 277 276 274 274 275 275 268 263 263 262 258 257 263 263 267 264 267 268 264 268 269 272 272 275 277 279 277 274 270 273 273 270 270 271 265 268 274 272 279 279 275 280 286 299 306 302 294 292 295 301 307 304 302 306 305 303 299 297 299 301 302 299 302 310 303 300 300 288 246 235 228 215 212 210 206 198 189 195 190 187 194
279 277 276 278 276 274 272 273 273 273 273 267 261 262 269 268 265 267 256 252 250 255 260 257 258 259 259 266 274 275 277 275 272 269 264 267 274 280 281 279 275 271 279 291 295 294 302 311 303 300 298 299 307 309 308 306 302 305 304 306 305 307 305 302 312 313 315 312 308 307 302 301 290 248 226 214 212 211 198 195 190 182 186 187 203
278 276 276 276 276 275 272 271 272 277 280 282 280 273 258 266 270 265 263 253 252 254 252 248 249 246 257 254 249 263 270 274 282 286 291 296 296 299 300 298 299 300 299 299 300 310 320 303 293 293 304 311 308 310 308 310 310 310 311 316 315 311 311 317 314 314 316 313 308 307 303 301 301 283 234 212 197 196 193 191 189 180 181 191 200
277 275 276 272 273 276 278 281 280 279 277 279 278 280 283 272 275 280 283 288 288 286 283 282 285 284 281 281 274 277 283 288 294 298 300 300 304 305 301 301 301 298 301 307 326 325 305 301 299 304 300 303 302 304 310 311 309 310 312 313 310 313 316 317 316 318 317 313 314 311 307 306 306 310 277 222 199 187 187 191 190 191 192 190 195
275 274 272 273 277 277 277 276 279 278 277 274 276 279 280 284 278 266 276 282 284 288 292 297 297 298 299 297 297 292 296 299 300 302 306 307 308 305 307 308 306 307 314 332 347 325 313 303 305 301 302 302 303 307 307 307 308 312 312 311 312 317 318 316 318 317 314 316 318 319 316 315 317 316 306 252 206 192 185 192 191 197 200 199 199
271 274 273 276 275 275 275 274 276 278 280 280 277 274 278 281 285 290 274 279 286 290 293 295 300 305 309 311 311 307 306 307 307 307 311 313 307 306 308 303 307 320 333 4 343 317 309 305 299 300 307 302 303 303 303 306 309 312 312 310 313 316 313 311 315 314 320 322 322 317 316 318 318 314 319 300 235 194 189 192 197 200 202 202 206
266 270 275 276 277 276 274 274 274 274 270 271 271 274 273 276 282 285 293 296 285 282 282 288 293 297 298 301 302 308 312 313 315 315 311 304 307 312 307 324 334 328 334 347 335 306 302 302 303 305 304 302 304 307 306 308 311 312 310 310 309 309 314 311 311 321 328 328 323 318 318 319 320 320 318 323 309 235 193 195 195 196 200 203 205
270 272 272 274 273 273 271 270 270 271 271 271 273 276 279 281 281 284 286 287 290 290 292 286 281 286 291 296 298 298 302 305 307 306 303 309 314 318 357 4 339 339 334 322 302 298 300 306 305 302 302 306 307 309 309 310 310 312 313 313 312 315 316 317 317 324 328 327 323 321 322 320 320 318 322 316 315 320 262 207 198 197 200 202 206
272 274 276 274 273 272 272 271 270 271 274 275 275 276 278 278 279 279 278 277 279 284 285 282 283 284 290 292 294 298 300 302 302 301 306 315 317 1 2 331 322 309 307 300 292 290 300 301 305 301 304 301 306 306 305 308 309 309 312 313 318 317 315 313 319 327 329 325 323 325 323 320 322 321 319 314 312 314 321 293 222 204 198 200 202
276 275 275 274 272 273 273 271 270 272 275 276 276 276 275 275 275 274 273 275 278 277 280 289 294 289 282 276 285 292 297 301 303 308 313 323 332 351 327 304 299 304 299 294 292 294 298 290 290 292 296 297 299 303 304 306 308 310 314 316 311 312 310 316 327 330 326 325 324 321 323 321 324 325 324 322 321 325 321 328 307 231 205 202 203
271 272 273 273 272 273 274 274 273 276 276 275 274 273 274 274 272 271 274 276 278 281 285 285 285 287 292 289 289 288 293 297 301 303 306 309 312 312 301 291 300 297 294 289 289 288 287 285 287 287 289 293 296 302 301 304 312 315 313 310 311 308 321 324 323 323 323 323 322 325 325 325 327 324 324 321 324 328 325 322 324 295 228 207 205
272 273 275 278 280 280 277 278 278 276 274 273 273 273 274 276 274 273 273 274 277 279 279 281 282 281 280 285 286 281 294 295 290 283 285 279 283 282 286 288 285 289 283 283 290 299 288 286 285 292 293 294 296 296 299 305 310 310 311 311 312 314 318 320 321 320 324 324 324 323 324 324 324 321 319 318 320 326 320 320 314 313 297 233 206
280 279 276 276 277 280 281 278 278 277 275 276 274 271 273 272 274 276 276 276 277 278 279 280 280 277 282 284 279 283 277 275 275 278 284 285 286 283 275 276 278 276 281 284 284 282 283 283 290 292 289 287 290 293 298 306 309 309 311 310 313 317 318 319 317 320 323 325 323 324 326 323 322 317 320 320 321 324 322 315 312 305 306 301 250
275 275 276 278 281 284 281 279 277 274 275 270 272 273 272 274 275 276 274 274 275 276 278 278 277 279 276 278 286 287 281 280 281 279 278 287 287 283 276 266 267 272 277 282 283 280 282 287 290 287 286 288 290 293 302 305 304 306 306 310 311 310 314 312 312 318 322 324 325 324 322 323 322 326 324 323 325 327 315 309 309 314 312 302 292
274 276 281 281 283 279 278 276 274 274 272 273 274 273 275 274 274 272 273 273 274 276 280 278 277 277 277 282 287 289 287 282 285 285 285 282 277 272 266 264 256 259 267 269 271 284 290 289 283 283 289 294 294 296 300 296 298 302 305 308 308 311 310 310 316 322 326 324 325 321 322 323 324 325 321 321 324 323 315 313 324 324 314 312 313
272 276 277 281 279 277 276 276 276 275 274 273 272 272 273 276 276 276 276 274 275 277 276 277 279 278 277 280 280 283 280 276 272 272 268 265 260 265 267 265 264 258 259 260 266 278 285 282 281 280 286 290 291 291 291 295 301 303 305 302 305 306 304 310 324 329 330 326 320 322 323 322 323 323 320 321 321 320 313 322 328 327 318 319 318
275 279 279 278 276 275 272 274 275 273 273 273 276 277 278 277 277 276 274 274 273 271 272 274 277 279 279 279 277 274 270 268 262 257 259 262 262 266 268 266 268 269 267 267 267 269 279 285 285 284 281 286 288 286 287 291 298 298 299 302 302 307 309 323 332 336 329 323 320 321 324 322 320 319 318 317 321 322 321 326 331 330 328 331 329
278 280 280 281 279 277 277 272 271 273 275 277 278 278 278 278 278 276 273 273 273 273 273 274 276 277 279 277 274 272 271 268 264 262 261 261 264 263 266 267 265 267 268 268 263 271 276 282 286 288 289 285 285 288 290 290 291 286 288 293 300 300 307 324 334 323 317 313 314 318 319 319 317 318 317 319 321 322 322 325 323 329 329 331 337
277 281 282 282 282 279 278 275 273 272 274 276 278 281 279 277 275 277 277 275 275 275 276 275 276 275 275 276 275 273 272 270 266 260 260 262 264 264 260 261 265 267 267 263 260 262 265 269 278 282 281 279 285 291 293 288 285 287 293 292 295 297 318 332 323 314 310 311 312 314 315 312 314 313 317 319 317 317 317 319 320 327 328 327 332
283 283 281 280 278 279 278 278 278 277 276 276 276 278 280 278 278 277 275 274 276 275 274 275 276 274 274 273 272 272 270 269 268 266 260 259 260 264 265 263 265 264 261 256 256 258 263 268 273 278 284 286 287 290 291 288 289 290 295 296 292 310 334 326 316 309 306 306 307 306 307 310 311 312 315 316 314 313 316 318 323 327 326 331 328
285 284 280 278 277 277 278 278 278 279 279 279 279 279 278 280 280 279 280 280 278 276 275 274 272 273 273 273 273 273 272 270 268 266 262 259 261 264 265 264 262 261 259 257 255 259 264 263 266 275 281 284 286 288 286 289 288 292 290 293 294 314 326 324 313 314 304 305 302 303 302 304 305 306 309 312 311 311 313 317 320 321 323 323 327
285 282 282 280 277 277 279 280 279 280 280 281 281 279 279 279 278 279 279 278 277 275 275 275 274 271 269 270 272 273 272 271 270 269 266 263 260 261 263 265 265 263 258 256 257 262 264 267 267 271 271 280 280 279 280 281 289 287 292 287 307 322 321 315 318 316 320 317 304 300 296 294 297 302 306 307 306 305 308 306 310 317 314 318 320
285 282 280 280 279 278 278 276 278 280 280 280 279 280 279 278 278 279 280 280 279 279 276 274 274 272 272 274 274 275 277 275 273 270 266 261 256 259 265 268 268 266 261 259 257 259 265 269 271 269 272 276 278 277 279 282 284 290 289 299 314 314 308 311 320 321 320 311 311 301 299 294 295 300 303 301 299 305 305 308 314 310 309 307 311
285 282 279 278 279 281 281 282 280 279 279 279 279 280 281 279 278 279 279 279 281 281 281 278 276 275 272 271 273 276 278 277 273 268 264 262 263 264 264 261 262 264 265 262 263 261 266 271 268 271 272 276 280 283 285 285 283 282 296 305 307 303 306 321 323 319 319 319 310 305 295 299 306 308 307 306 303 298 304 313 311 310 306 305 298